Location: Clanezzo
(45.7500°N, 9.6000°E)
Time: 07:06:30
(UTC+00:00)

CAS-4A - Pass Details

Date: 06 July 2022
Orbit: 521 x 537 km, 43.0° (Epoch: 08 August)

Event Time Altitude Azimuth Distance (km) Brightness Sun altitude
Exits shadow 02:35:24 - 270° (W) 2,295 ? -9.2°
Reaches altitude 10° 02:36:47 10° 266° (W) 1,756 ? -9.1°
Maximum altitude 02:40:41 50° 191° (S) 667 ? -8.6°
Drops below altitude 10° 02:44:35 10° 115° (ESE) 1,760 ? -8.1°
Sets 02:46:51 0° 110° (ESE) 2,651 ? -7.8°
